| time (UTC) | temp C | wind direction | speed KPH | gust KPH | rain 1hr cm | rain 24hr cm | rain mn cm | humidity % | barometer mb |
| 20260508231527 | 17 | 0 | 0.0 | 0.0 | 0.00 | 0.00 | 0.00 | 62 | 1015.1 |
| 20260508230028 | 17 | 0 | 0.0 | 4.8 | 0.00 | 0.00 | 0.00 | 62 | 1015.1 |
| 20260508224530 | 17 | 62 | 3.2 | 14.5 | 0.00 | 0.00 | 0.00 | 60 | 1015.1 |
| 20260508223040 | 18 | 111 | 1.6 | 12.9 | 0.00 | 0.00 | 0.00 | 59 | 1015.4 |
| 20260508221530 | 18 | 45 | 3.2 | 12.9 | 0.00 | 0.00 | 0.00 | 58 | 1015.4 |
| 20260508220032 | 18 | 108 | 6.4 | 12.9 | 0.00 | 0.00 | 0.00 | 57 | 1015.3 |
| 20260508214538 | 18 | 49 | 4.8 | 16.1 | 0.00 | 0.00 | 0.00 | 56 | 1015.5 |
| 20260508213034 | 18 | 19 | 3.2 | 12.9 | 0.00 | 0.00 | 0.00 | 57 | 1015.0 |
| 20260508211532 | 18 | 105 | 3.2 | 12.9 | 0.00 | 0.00 | 0.00 | 56 | 1015.0 |
| 20260508210030 | 18 | 131 | 1.6 | 16.1 | 0.00 | 0.00 | 0.00 | 56 | 1015.2 |
| 20260508204533 | 18 | 225 | 3.2 | 14.5 | 0.00 | 0.00 | 0.00 | 54 | 1015.3 |
| 20260508203028 | 18 | 25 | 4.8 | 12.9 | 0.00 | 0.00 | 0.00 | 53 | 1015.4 |
| 20260508201529 | 18 | 46 | 3.2 | 16.1 | 0.00 | 0.00 | 0.00 | 55 | 1015.5 |
| 20260508200028 | 19 | 69 | 4.8 | 20.9 | 0.00 | 0.00 | 0.00 | 52 | 1015.8 |
| 20260508194531 | 19 | 22 | 4.8 | 16.1 | 0.00 | 0.00 | 0.00 | 51 | 1015.9 |
| 20260508193028 | 19 | 86 | 3.2 | 16.1 | 0.00 | 0.00 | 0.00 | 52 | 1016.5 |
| 20260508191531 | 18 | 70 | 3.2 | 16.1 | 0.00 | 0.00 | 0.00 | 50 | 1016.6 |
| 20260508190031 | 19 | 74 | 1.6 | 9.7 | 0.00 | 0.00 | 0.00 | 52 | 1016.9 |
| 20260508184531 | 19 | 79 | 3.2 | 19.3 | 0.00 | 0.00 | 0.00 | 52 | 1017.0 |
| 20260508183030 | 19 | 52 | 4.8 | 16.1 | 0.00 | 0.00 | 0.00 | 51 | 1017.2 |
| 20260508181530 | 19 | 148 | 4.8 | 17.7 | 0.00 | 0.00 | 0.00 | 49 | 1017.4 |
| 20260508180030 | 18 | 67 | 6.4 | 17.7 | 0.00 | 0.00 | 0.00 | 49 | 1017.8 |
| 20260508174528 | 18 | 114 | 4.8 | 20.9 | 0.00 | 0.00 | 0.00 | 47 | 1017.7 |
| 20260508173029 | 18 | 193 | 1.6 | 17.7 | 0.00 | 0.00 | 0.00 | 49 | 1018.0 |
| 20260508171539 | 18 | 186 | 6.4 | 14.5 | 0.00 | 0.00 | 0.00 | 51 | 1018.1 |
| 20260508170030 | 18 | 5 | 3.2 | 16.1 | 0.00 | 0.00 | 0.00 | 50 | 1018.4 |
| 20260508164528 | 18 | 352 | 1.6 | 14.5 | 0.00 | 0.00 | 0.00 | 54 | 1018.7 |
| 20260508163032 | 17 | 61 | 1.6 | 14.5 | 0.00 | 0.00 | 0.00 | 54 | 1018.7 |
| 20260508161530 | 17 | 292 | 4.8 | 12.9 | 0.00 | 0.00 | 0.00 | 53 | 1018.8 |
| 20260508160052 | 17 | 121 | 1.6 | 14.5 | 0.00 | 0.00 | 0.00 | 57 | 1019.1 |
| 20260508154528 | 17 | 262 | 3.2 | 12.9 | 0.00 | 0.03 | 0.00 | 55 | 1019.3 |
| 20260508153033 | 17 | 67 | 1.6 | 9.7 | 0.00 | 0.03 | 0.00 | 56 | 1019.4 |
| 20260508151530 | 16 | 78 | 3.2 | 11.3 | 0.00 | 0.03 | 0.00 | 56 | 1019.3 |
| 20260508150034 | 16 | 102 | 0.0 | 6.4 | 0.00 | 0.03 | 0.00 | 58 | 1019.4 |
| 20260508144527 | 15 | 0 | 1.6 | 9.7 | 0.00 | 0.03 | 0.00 | 57 | 1019.5 |
| 20260508143039 | 15 | 0 | 0.0 | 8.0 | 0.00 | 0.03 | 0.00 | 56 | 1019.5 |
| 20260508141537 | 15 | 0 | 0.0 | 0.0 | 0.00 | 0.03 | 0.00 | 60 | 1019.5 |
| 20260508140030 | 15 | 205 | 1.6 | 6.4 | 0.00 | 0.03 | 0.00 | 61 | 1019.7 |
| 20260508134532 | 14 | 207 | 3.2 | 6.4 | 0.00 | 0.03 | 0.00 | 63 | 1019.6 |
| 20260508133028 | 13 | 221 | 3.2 | 8.0 | 0.00 | 0.03 | 0.00 | 65 | 1019.6 |
| 20260508131529 | 12 | 193 | 3.2 | 9.7 | 0.00 | 0.03 | 0.00 | 67 | 1019.5 |
| 20260508130029 | 12 | 227 | 1.6 | 8.0 | 0.00 | 0.03 | 0.00 | 70 | 1019.3 |
| 20260508124529 | 12 | 316 | 1.6 | 8.0 | 0.00 | 0.10 | 0.00 | 71 | 1019.3 |
| 20260508123028 | 11 | 0 | 0.0 | 8.0 | 0.00 | 0.10 | 0.00 | 73 | 1019.2 |
| 20260508121550 | 11 | 208 | 3.2 | 6.4 | 0.00 | 0.10 | 0.00 | 74 | 1019.1 |
| 20260508120034 | 10 | 206 | 1.6 | 6.4 | 0.00 | 0.10 | 0.00 | 77 | 1018.8 |
| 20260508114530 | 9 | 0 | 0.0 | 1.6 | 0.00 | 0.33 | 0.00 | 84 | 1018.6 |
| 20260508113028 | 8 | 0 | 0.0 | 1.6 | 0.00 | 0.33 | 0.00 | 88 | 1018.3 |
| 20260508111533 | 7 | 0 | 0.0 | 1.6 | 0.00 | 0.33 | 0.00 | 89 | 1018.1 |
| 20260508110036 | 7 | 0 | 0.0 | 1.6 | 0.00 | 0.33 | 0.00 | 89 | 1017.7 |
| 20260508104528 | 7 | 0 | 0.0 | 1.6 | 0.00 | 0.36 | 0.00 | 88 | 1017.6 |
| 20260508103031 | 7 | 0 | 0.0 | 4.8 | 0.00 | 0.36 | 0.00 | 88 | 1017.2 |
| 20260508101534 | 7 | 0 | 0.0 | 3.2 | 0.00 | 0.36 | 0.00 | 86 | 1016.9 |
| 20260508100027 | 8 | 0 | 0.0 | 3.2 | 0.00 | 0.36 | 0.00 | 85 | 1016.6 |
| 20260508094529 | 8 | 0 | 0.0 | 3.2 | 0.00 | 0.36 | 0.00 | 83 | 1016.6 |
| 20260508093032 | 8 | 0 | 0.0 | 3.2 | 0.00 | 0.36 | 0.00 | 82 | 1016.6 |
| 20260508091530 | 9 | 0 | 0.0 | 3.2 | 0.00 | 0.36 | 0.00 | 81 | 1016.6 |
| 20260508090028 | 10 | 0 | 0.0 | 3.2 | 0.00 | 0.36 | 0.00 | 79 | 1016.6 |
| 20260508084528 | 10 | 0 | 0.0 | 3.2 | 0.00 | 0.43 | 0.00 | 78 | 1016.4 |
| 20260508083112 | 10 | 0 | 0.0 | 4.8 | 0.00 | 0.43 | 0.00 | 78 | 1016.3 |
| 20260508081530 | 10 | 186 | 0.0 | 6.4 | 0.00 | 0.43 | 0.00 | 77 | 1016.1 |
| 20260508080031 | 11 | 0 | 0.0 | 4.8 | 0.00 | 0.43 | 0.00 | 75 | 1016.1 |
| 20260508074533 | 11 | 207 | 1.6 | 8.0 | 0.00 | 0.43 | 0.00 | 74 | 1016.0 |
| 20260508073033 | 11 | 0 | 1.6 | 6.4 | 0.00 | 0.43 | 0.00 | 74 | 1015.8 |
| 20260508071532 | 11 | 272 | 1.6 | 9.7 | 0.00 | 0.43 | 0.00 | 73 | 1015.9 |
| 20260508070030 | 11 | 300 | 1.6 | 14.5 | 0.00 | 0.43 | 0.00 | 74 | 1015.7 |
| 20260508064545 | 11 | 197 | 0.0 | 9.7 | 0.00 | 0.46 | 0.00 | 74 | 1015.7 |
| 20260508063033 | 11 | 0 | 0.0 | 4.8 | 0.00 | 0.46 | 0.00 | 74 | 1015.7 |
| 20260508061532 | 11 | 243 | 0.0 | 6.4 | 0.00 | 0.46 | 0.00 | 75 | 1015.6 |
| 20260508060030 | 11 | 234 | 0.0 | 1.6 | 0.00 | 0.46 | 0.00 | 76 | 1015.7 |
| 20260508054530 | 11 | 0 | 1.6 | 8.0 | 0.00 | 0.56 | 0.00 | 75 | 1015.8 |
| 20260508053027 | 11 | 0 | 0.0 | 3.2 | 0.00 | 0.56 | 0.00 | 75 | 1015.8 |
| 20260508051531 | 11 | 0 | 0.0 | 4.8 | 0.00 | 0.56 | 0.00 | 74 | 1015.6 |
| 20260508050027 | 11 | 0 | 0.0 | 9.7 | 0.00 | 0.56 | 0.00 | 74 | 1015.4 |
| 20260508044528 | 12 | 209 | 0.0 | 6.4 | 0.00 | 0.69 | 0.00 | 73 | 1015.3 |
| 20260508043033 | 12 | 0 | 0.0 | 11.3 | 0.00 | 0.69 | 0.00 | 73 | 1015.3 |
| 20260508041529 | 12 | 0 | 0.0 | 8.0 | 0.00 | 0.69 | 0.00 | 73 | 1015.2 |
| 20260508040035 | 12 | 0 | 0.0 | 6.4 | 0.00 | 0.69 | 0.00 | 73 | 1015.2 |
| 20260508034530 | 12 | 228 | 1.6 | 11.3 | 0.00 | 0.69 | 0.69 | 72 | 1015.3 |
| 20260508033027 | 12 | 218 | 1.6 | 17.7 | 0.00 | 0.69 | 0.69 | 72 | 1015.2 |
| 20260508031530 | 12 | 223 | 3.2 | 14.5 | 0.00 | 0.69 | 0.69 | 72 | 1015.3 |
| 20260508030034 | 12 | 0 | 1.6 | 14.5 | 0.00 | 0.69 | 0.69 | 72 | 1015.3 |
| 20260508024530 | 12 | 271 | 4.8 | 14.5 | 0.00 | 0.79 | 0.69 | 72 | 1015.1 |
| 20260508023035 | 12 | 204 | 3.2 | 17.7 | 0.00 | 0.79 | 0.69 | 71 | 1014.9 |
| 20260508021531 | 12 | 147 | 4.8 | 12.9 | 0.00 | 0.79 | 0.69 | 72 | 1014.6 |
| 20260508020028 | 12 | 234 | 3.2 | 11.3 | 0.00 | 0.79 | 0.69 | 71 | 1014.5 |
| 20260508014534 | 12 | 230 | 0.0 | 12.9 | 0.00 | 0.84 | 0.69 | 71 | 1014.5 |
| 20260508013030 | 12 | 198 | 0.0 | 11.3 | 0.00 | 0.84 | 0.69 | 69 | 1013.9 |
| 20260508011536 | 12 | 219 | 3.2 | 17.7 | 0.00 | 0.84 | 0.69 | 69 | 1013.6 |
| 20260508010033 | 13 | 74 | 6.4 | 19.3 | 0.00 | 0.84 | 0.69 | 69 | 1013.4 |
| 20260508004529 | 13 | 215 | 9.7 | 24.1 | 0.00 | 1.02 | 0.69 | 68 | 1013.2 |
| 20260508003037 | 13 | 238 | 8.0 | 20.9 | 0.00 | 1.02 | 0.69 | 69 | 1013.1 |
| 20260508001536 | 13 | 198 | 6.4 | 19.3 | 0.00 | 1.02 | 0.69 | 68 | 1012.9 |
| 20260508000029 | 14 | 231 | 6.4 | 19.3 | 0.00 | 1.02 | 0.69 | 69 | 1012.9 |
| 20260507234528 | 15 | 222 | 6.4 | 16.1 | 0.00 | 1.14 | 0.69 | 69 | 1013.0 |
| 20260507233032 | 15 | 241 | 1.6 | 20.9 | 0.00 | 1.14 | 0.69 | 69 | 1012.8 |